Home   Weather   Paris   Past weeks
Flag for France

Past Weather in Paris, Île-de-France, France — Yesterday and Last 2 Weeks

Now
66 °F

Passing clouds.


Feels Like: 66 °F
Forecast: 71 / 52 °F
Wind: 6 mph from North

Location: Villacoublay

Current Time: May 24, 2019 at 1:15:32 pm

Latest Report: May 24, 2019 at 12:30 pm


Visibility: N/A

Pressure: 30.04 "Hg

Humidity: 60%

Dew Point: 52 °F

Location of ParisLocation

Past Weather in Paris — Graph

°F

Paris Temperature Yesterday

Maximum temperature yesterday: 72 °F (at 3:00 pm)
Minimum temperature yesterday: 48 °F (at 6:00 am)
Average temperature yesterday: 62 °F

High & Low Weather Summary for the Past Weeks

 TemperatureHumidityPressure
High72 °F (May 23, 3:00 pm)100% (May 10, 7:00 am)30.60 "Hg (May 10, 7:00 am)
Low41 °F (May 12, 5:30 am)34% (May 13, 6:00 pm)29.53 "Hg (May 9, 12:00 pm)
Average56 °F68%30.03 "Hg
* Reported May 9 12:00 pm — May 24 12:00 pm, Paris. Weather by CustomWeather, © 2019

Note: Actual official high and low records may vary slightly from our data, if they occured in-between our weather recording intervals... More about our weather records

Advertising

Paris Weather History for the Previous 24 Hours

Scroll right to see more
 ConditionsComfort  
Time TempWeatherWind HumidityBarometerVisibility
12:00 pm
Fri, May 24
66 °FPassing clouds.6 mph60%30.04 "HgN/A
11:30 am66 °FSunny.3 mph60%30.04 "Hg10 mi
11:00 am64 °FPassing clouds.5 mph60%30.04 "HgN/A
10:30 am61 °FPassing clouds.6 mph68%30.04 "HgN/A
10:00 am61 °FPassing clouds.6 mph68%30.04 "HgN/A
9:30 am59 °FSunny.6 mph68%30.04 "Hg10 mi
9:00 am59 °FSunny.8 mph72%30.04 "Hg10 mi
8:30 am57 °FPassing clouds.7 mph82%30.04 "HgN/A
8:00 am57 °FPassing clouds.5 mph82%30.04 "HgN/A
7:30 am57 °FPassing clouds.5 mph82%30.04 "HgN/A
7:00 am55 °FPassing clouds.5 mph88%30.01 "HgN/A
6:30 am55 °FPassing clouds.5 mph88%30.01 "HgN/A
6:00 am57 °FSunny.6 mph82%30.01 "Hg10 mi
5:30 am57 °FClear.5 mph77%30.01 "Hg10 mi
5:00 am57 °FClear.6 mph77%30.01 "Hg10 mi
4:30 am57 °FClear.5 mph77%30.01 "Hg10 mi
4:00 am57 °FClear.6 mph77%30.01 "Hg10 mi
3:30 am57 °FClear.6 mph77%30.01 "Hg10 mi
3:00 am57 °FPassing clouds.6 mph77%30.01 "HgN/A
2:30 am57 °FClear.6 mph77%30.01 "Hg10 mi
2:00 am55 °FClear.6 mph82%30.01 "Hg10 mi
1:30 am55 °FClear.6 mph82%30.04 "Hg10 mi
1:00 am57 °FClear.7 mph77%30.04 "Hg10 mi
12:30 am57 °FClear.9 mph77%30.04 "Hg10 mi
12:00 am59 °FClear.10 mph77%30.04 "Hg10 mi
11:30 pm
Thu, May 23
59 °FClear.12 mph77%30.04 "Hg10 mi
11:00 pm61 °FClear.2 mph63%30.04 "Hg10 mi
10:30 pm61 °FClear.3 mph59%30.04 "Hg10 mi
10:00 pm63 °FClear.3 mph56%30.04 "Hg10 mi
9:30 pm66 °FSunny.2 mph46%30.01 "Hg10 mi
9:00 pm66 °FSunny.2 mph49%30.01 "Hg10 mi
8:30 pm68 °FSunny.3 mph43%30.01 "Hg10 mi
8:00 pm68 °FPassing clouds.3 mph43%30.01 "HgN/A
7:30 pm70 °FPassing clouds.3 mph40%30.01 "HgN/A
7:00 pm70 °FPassing clouds.3 mph43%30.01 "HgN/A
6:30 pm70 °FPassing clouds.3 mph38%30.04 "HgN/A
6:00 pm72 °FSunny.2 mph44%30.04 "Hg10 mi
5:30 pm72 °FPassing clouds.5 mph41%30.04 "HgN/A
5:00 pm70 °FPassing clouds.3 mph40%30.04 "HgN/A
4:30 pm72 °FSunny.3 mph44%30.04 "Hg10 mi
4:00 pm70 °FPassing clouds.5 mph46%30.04 "HgN/A
3:00 pm72 °FPassing clouds.5 mph41%30.07 "HgN/A
2:30 pm70 °FPassing clouds.5 mph40%30.07 "HgN/A
2:00 pm70 °FPassing clouds.5 mph40%30.07 "HgN/A
1:30 pm70 °FSunny.5 mph40%30.07 "Hg10 mi
1:00 pm70 °FSunny.5 mph40%30.09 "Hg10 mi
Weather by CustomWeather, © 2019

See weather overview